Flag for Germany Weather past 2 weeks in Garbsen, Lower Saxony, Germany

Now
50 °F

Clear.


Feels Like: 48 °F
Forecast: 44 / 56 °F
Wind: 5 mph from Northwest

Location: Hannover

Current Time: May 26, 2015 at 12:07:58 AM

Latest Report: May 25, 2015 at 11:20 PM


Visibility: 10 mi

Pressure: 29.95 "Hg

Humidity: 62%

Dew point: 37 °F

Location of GarbsenLocation

Historic Weather in Garbsen — Graph

°F

Garbsen temperature yesterday

Maximum temperature yesterday: 59 °F (at 4:50 PM)
Minimum temperature yesterday: 45 °F (at 3:50 AM)
Average temperature yesterday: 52 °F

Past Weeks' High & Low Weather Summary

 TemperatureHumidityPressure
High77 °F (May 12, 12:50 PM)100% (May 15, 12:50 AM)30.33 "Hg (May 15, 12:50 AM)
Low34 °F (May 15, 4:50 AM)41% (May 11, 5:50 PM)29.59 "Hg (May 18, 8:50 PM)
Average53 °F70%30.04 "Hg
* Reported May 10 10:20 PM — May 25 10:20 PM, Garbsen, Weather by CustomWeather, © 2015

Note: Actual official high and low records may vary slightly from our data, if they occured in-between our weather recording intervals... More about our weather records

Advertising

Garbsen weather history for previous 24 hours

 ConditionsComfort  
Time TempWeatherWind HumidityBarometerVisibility
10:20 PM
Mon, May 25
50 °FSunny.6 mph67%29.95 "Hg10 mi
9:50 PM50 °FSunny.6 mph67%29.95 "Hg10 mi
9:20 PM52 °FScattered clouds.7 mph62%29.95 "HgN/A
8:50 PM52 °FScattered clouds.7 mph62%29.95 "HgN/A
8:20 PM54 °FScattered clouds.7 mph63%29.95 "HgN/A
7:50 PM55 °FPassing clouds.7 mph59%29.95 "HgN/A
7:20 PM57 °FScattered clouds.10 mph55%29.95 "HgN/A
6:50 PM57 °FPartly sunny.10 mph55%29.92 "HgN/A
6:20 PM57 °FPartly sunny.9 mph59%29.92 "HgN/A
5:50 PM57 °FPartly sunny.10 mph59%29.92 "HgN/A
5:20 PM59 °FPartly sunny.13 mph59%29.92 "HgN/A
4:50 PM59 °FBroken clouds.10 mph68%29.92 "HgN/A
4:20 PM57 °FBroken clouds.12 mph72%29.92 "HgN/A
3:50 PM57 °FPartly sunny.12 mph72%29.92 "HgN/A
3:20 PM57 °FPartly sunny.9 mph72%29.92 "HgN/A
2:50 PM57 °FPartly sunny.8 mph77%29.92 "HgN/A
2:20 PM57 °FBroken clouds.7 mph77%29.92 "HgN/A
1:50 PM54 °FBroken clouds.10 mph94%29.95 "HgN/A
1:20 PM54 °FDrizzle. Partly sunny.10 mph94%29.95 "Hg2 mi
12:50 PM54 °FPartly sunny.8 mph94%29.95 "Hg6 mi
12:20 PM54 °FPartly sunny.7 mph94%29.95 "Hg6 mi
11:50 AM52 °FDrizzle. Partly sunny.8 mph94%29.95 "Hg3 mi
11:20 AM52 °FDrizzle. Partly sunny.7 mph94%29.95 "Hg4 mi
10:50 AM54 °FDrizzle. Broken clouds.5 mph88%29.95 "HgN/A
10:20 AM54 °FDrizzle. Partly sunny.7 mph88%29.95 "Hg5 mi
9:50 AM54 °FLight rain. Partly sunny.6 mph82%29.95 "HgN/A
9:20 AM52 °FLight rain. Broken clouds.6 mph88%29.95 "HgN/A
8:50 AM52 °FLight rain. Broken clouds.5 mph88%29.95 "HgN/A
8:20 AM50 °FLight rain. Broken clouds.5 mph94%29.95 "HgN/A
7:50 AM50 °FLight rain. Broken clouds.5 mph88%29.95 "HgN/A
7:20 AM50 °FLight rain. Broken clouds.6 mph88%29.95 "HgN/A
6:50 AM48 °FPartly sunny.5 mph94%29.95 "HgN/A
6:20 AM48 °FSunny.6 mph87%29.95 "Hg10 mi
5:50 AM46 °FFog.6 mph87%29.95 "HgN/A
5:20 AM45 °FFog.5 mph93%29.95 "HgN/A
4:50 AM45 °FFog.5 mph93%29.95 "HgN/A
4:20 AM45 °FFog.1 mph93%29.95 "HgN/A
3:50 AM45 °FFog.2 mph100%29.95 "HgN/A
3:20 AM46 °FFog.2 mph87%29.98 "HgN/A
2:50 AM46 °FFog.3 mph93%29.98 "HgN/A
2:20 AM46 °FFog.2 mph93%29.98 "HgN/A
1:50 AM48 °FFog.2 mph94%29.98 "HgN/A
1:20 AM48 °FPassing clouds.2 mph94%29.98 "HgN/A
12:50 AM50 °FPassing clouds.2 mph94%29.98 "HgN/A
12:20 AM50 °FPassing clouds.3 mph94%30.01 "HgN/A
Weather by CustomWeather, © 2015

See weather overviewHow to use our weather pages